User: anonymous   Login
Location: Sternwarte ZA, Rosenfeld-Brittheim
(48.2889°N, 8.6789°E)
Time: 07:06:09
(UTC+02:00)
Language:

ISS - Orbit

View from above orbital plane
View from above orbital plane
View from above satellite
View from above satellite

Ground track
Ground track

The orbit data is extracted from the following two-line orbital elements,

1 25544U 98067A   18201.63924192  .00016717  00000-0  10270-3 0  9038
2 25544  51.6364 211.9824 0004205 337.3242  22.7724 15.53990000  3716
Epoch (UTC): 20 July 2018 15:20:30
Eccentricity: 0.0004205
inclination: 51.6364°
perigee height: 402 km
apogee height: 408 km
right ascension of ascending node: 211.9824°
argument of perigee: 337.3242°
revolutions per day: 15.53990000
mean anomaly at epoch: 22.7724°
orbit number at epoch: 371

The dashed part of the orbit path shows where the satellite is in the earth's shadow,  

DLR